EW6819 Weather Reports


Display with metric or nautical units.
time (UTC)temp
F
wind
direction
speed
MPH
gust
MPH
rain 1hr
in
rain 24hr
in
rain mn
in
humidity
%
barometer
mb
20260507195503 52 63 3.0 11.0 0.00 0.00 0.00 43 1008.7
20260507195003 52 35 3.0 8.0 0.00 0.00 0.00 44 1008.9
20260507194503 52 20 4.0 8.0 0.00 0.00 0.00 43 1008.9
20260507194003 52 3 4.0 8.0 0.00 0.00 0.00 44 1009.0
20260507193503 51 1 3.0 8.0 0.00 0.00 0.00 47 1009.0
20260507193003 51 359 3.0 8.0 0.00 0.00 0.00 45 1009.0
20260507192503 50 8 3.0 8.0 0.00 0.00 0.00 48 1009.1
20260507192003 50 8 3.0 7.0 0.00 0.00 0.00 47 1009.2
20260507191714 50 4 2.0 6.0 0.00 0.00 0.00 48 1009.2
20260507191003 50 4 3.0 10.0 0.00 0.00 0.00 46 1009.3
20260507190503 50 359 5.0 13.0 0.00 0.00 0.00 45 1009.4
20260507190004 51 349 5.0 13.0 0.00 0.00 0.00 44 1009.2
20260507185503 52 285 3.0 11.0 0.00 0.00 0.00 44 1009.2
20260507185003 52 263 2.0 7.0 0.00 0.00 0.00 43 1009.1
20260507184504 52 321 2.0 7.0 0.00 0.00 0.00 50 1009.2
20260507184213 51 329 2.0 8.0 0.00 0.00 0.00 54 1009.2
20260507183503 49 331 3.0 8.0 0.00 0.01 0.00 48 1009.4
20260507183213 49 333 2.0 8.0 0.00 0.01 0.00 48 1009.5
20260507182503 49 280 2.0 8.0 0.00 0.01 0.00 46 1009.5
20260507182003 49 295 2.0 8.0 0.00 0.01 0.00 49 1009.7
20260507181503 48 283 2.0 9.0 0.00 0.01 0.00 54 1009.7
20260507181212 48 275 3.0 9.0 0.00 0.01 0.00 52 1009.7
20260507180503 48 331 4.0 12.0 0.00 0.01 0.00 51 1009.7
20260507180003 49 341 5.0 12.0 0.00 0.01 0.00 50 1009.6
20260507175503 49 331 4.0 12.0 0.00 0.01 0.00 47 1009.7
20260507175212 50 315 3.0 12.0 0.00 0.01 0.00 46 1009.7
20260507174503 50 266 4.0 11.0 0.00 0.01 0.00 43 1009.6
20260507174003 50 259 4.0 10.0 0.00 0.01 0.00 43 1009.7
20260507173503 50 241 5.0 15.0 0.00 0.01 0.00 44 1009.7
20260507173212 50 244 5.0 15.0 0.00 0.01 0.00 43 1009.7
20260507172503 49 278 3.0 11.0 0.00 0.01 0.00 46 1009.8
20260507172214 49 248 3.0 11.0 0.00 0.01 0.00 43 1009.8
20260507171503 49 250 2.0 10.0 0.00 0.01 0.00 48 1009.9
20260507171003 48 275 2.0 10.0 0.00 0.01 0.00 47 1010.0
20260507170503 49 230 2.0 11.0 0.00 0.01 0.00 47 1010.0
20260507170003 49 217 3.0 11.0 0.00 0.01 0.00 47 1010.1
20260507165503 49 247 4.0 12.0 0.00 0.01 0.00 45 1010.1
20260507165003 49 247 4.0 12.0 0.00 0.01 0.00 44 1010.2
20260507164713 50 236 4.0 11.0 0.00 0.01 0.00 46 1010.0
20260507164214 50 238 4.0 11.0 0.00 0.01 0.00 46 1010.1
20260507163503 50 224 4.0 11.0 0.00 0.01 0.00 47 1010.1
20260507163003 49 265 4.0 13.0 0.00 0.01 0.00 48 1010.2
20260507162503 48 277 4.0 13.0 0.00 0.01 0.00 46 1010.3
20260507162003 48 248 4.0 11.0 0.00 0.01 0.00 48 1010.4
20260507161503 48 242 5.0 14.0 0.00 0.01 0.00 46 1010.3
20260507161003 48 251 6.0 14.0 0.00 0.01 0.00 47 1010.4
20260507160503 48 253 6.0 16.0 0.00 0.01 0.00 47 1010.5
20260507160003 49 259 6.0 16.0 0.00 0.01 0.00 46 1010.4
20260507155503 50 266 3.0 13.0 0.00 0.01 0.00 44 1010.4
20260507155003 50 259 3.0 9.0 0.00 0.01 0.00 41 1010.5
20260507154503 50 261 4.0 12.0 0.00 0.01 0.00 46 1010.6
20260507154003 49 265 5.0 13.0 0.00 0.01 0.00 44 1010.6
20260507153504 49 262 6.0 13.0 0.00 0.01 0.00 47 1010.7
20260507153213 48 263 6.0 12.0 0.00 0.01 0.00 44 1010.7
20260507152503 48 272 3.0 12.0 0.00 0.02 0.00 39 1010.7
20260507152213 48 273 3.0 11.0 0.00 0.02 0.00 39 1010.7
20260507151504 48 217 3.0 13.0 0.00 0.03 0.00 39 1010.8
20260507151213 48 195 4.0 13.0 0.00 0.03 0.00 41 1010.9
20260507150503 48 199 4.0 8.0 0.00 0.03 0.00 41 1010.8
20260507150003 47 193 4.0 11.0 0.00 0.03 0.00 43 1010.8
20260507145503 48 155 4.0 11.0 0.00 0.03 0.00 40 1010.9
20260507145003 48 164 2.0 8.0 0.00 0.03 0.00 50 1010.9
20260507144503 47 161 2.0 4.0 0.00 0.03 0.00 48 1011.0
20260507144003 46 255 3.0 7.0 0.00 0.04 0.00 48 1011.0
20260507143503 46 12 5.0 12.0 0.00 0.04 0.00 50 1011.1
20260507143213 46 18 6.0 12.0 0.00 0.04 0.00 49 1011.0
20260507142503 46 310 4.0 11.0 0.00 0.04 0.00 49 1011.2
20260507142003 45 259 4.0 9.0 0.00 0.04 0.00 46 1011.1
20260507141503 45 271 4.0 11.0 0.00 0.05 0.00 47 1011.2
20260507141003 45 289 3.0 11.0 0.00 0.05 0.00 45 1011.1
20260507140503 45 301 3.0 9.0 0.00 0.05 0.00 49 1011.2
20260507140003 44 270 4.0 11.0 0.00 0.05 0.00 48 1011.3
20260507135503 44 267 3.0 11.0 0.00 0.05 0.00 45 1011.4
20260507135003 44 262 2.0 8.0 0.00 0.05 0.00 47 1011.5
20260507134503 44 262 3.0 10.0 0.00 0.05 0.00 46 1011.4
20260507134213 44 265 3.0 10.0 0.00 0.05 0.00 47 1011.4
20260507133503 44 219 3.0 9.0 0.00 0.05 0.00 46 1011.4
20260507133003 44 158 2.0 6.0 0.00 0.05 0.00 47 1011.4
20260507132503 45 100 2.0 5.0 0.00 0.06 0.00 47 1011.4
20260507132213 45 71 2.0 5.0 0.00 0.06 0.00 47 1011.4
20260507131503 45 34 3.0 8.0 0.00 0.06 0.00 50 1011.2
20260507131003 45 23 2.0 8.0 0.00 0.06 0.00 51 1011.3
20260507130503 44 46 1.0 4.0 0.00 0.06 0.00 51 1011.2
20260507130003 43 67 1.0 4.0 0.00 0.06 0.00 49 1011.2
20260507125503 43 26 1.0 4.0 0.00 0.07 0.00 50 1011.1
20260507125212 43 331 1.0 3.0 0.00 0.07 0.00 48 1011.2
20260507124714 42 306 2.0 7.0 0.00 0.07 0.00 47 1011.2
20260507124212 42 293 2.0 9.0 0.00 0.07 0.00 46 1011.3
20260507123713 42 316 3.0 9.0 0.00 0.08 0.00 50 1011.4
20260507123212 42 317 3.0 8.0 0.00 0.08 0.00 49 1011.5
20260507122503 42 271 2.0 8.0 0.00 0.10 0.00 49 1011.6
20260507122003 42 106 1.0 4.0 0.00 0.10 0.00 52 1011.4
20260507121503 42 93 1.0 4.0 0.00 0.11 0.00 57 1011.2
20260507121003 42 79 1.0 4.0 0.00 0.12 0.00 58 1011.2
20260507120713 41 79 2.0 4.0 0.00 0.13 0.00 58 1011.2
20260507120003 41 93 2.0 6.0 0.00 0.16 0.00 62 1011.1
20260507115503 40 80 3.0 6.0 0.00 0.17 0.00 63 1011.0
20260507115003 40 51 2.0 5.0 0.00 0.17 0.00 63 1011.1
20260507114503 39 26 2.0 5.0 0.00 0.18 0.00 63 1011.3
20260507114003 39 32 3.0 5.0 0.00 0.19 0.00 64 1011.3
20260507113713 39 39 2.0 4.0 0.00 0.19 0.00 65 1011.4
20260507113003 38 225 1.0 4.0 0.00 0.21 0.00 65 1011.3
20260507112503 37 261 0.0 2.0 0.00 0.21 0.00 65 1011.2
20260507112003 37 258 0.0 1.0 0.00 0.22 0.00 65 1011.2
20260507111503 36 258 0.0 1.0 0.00 0.23 0.00 65 1011.1
20260507111003 36 259 0.0 1.0 0.00 0.23 0.00 65 1011.0
20260507110503 35 0 0.0 0.0 0.00 0.23 0.00 65 1011.0
20260507110214 35 0 0.0 0.0 0.00 0.24 0.00 65 1011.0
20260507105503 34 259 0.0 1.0 0.00 0.25 0.00 65 1010.9
20260507105003 34 259 0.0 1.0 0.00 0.25 0.00 64 1010.7
20260507104503 34 0 0.0 0.0 0.00 0.26 0.00 64 1010.7
20260507104003 34 259 0.0 1.0 0.00 0.27 0.00 64 1010.7
20260507103503 34 259 1.0 2.0 0.00 0.28 0.00 64 1010.8
20260507103003 34 259 1.0 3.0 0.00 0.29 0.00 64 1010.9
20260507102503 33 259 2.0 3.0 0.00 0.29 0.00 64 1010.9
20260507102214 33 259 1.0 3.0 0.00 0.30 0.00 64 1010.9
20260507101503 33 259 1.0 3.0 0.00 0.31 0.00 64 1010.9
20260507101003 33 259 2.0 3.0 0.00 0.32 0.00 64 1010.8
20260507100503 33 259 2.0 3.0 0.00 0.34 0.00 64 1010.9
20260507100003 33 259 2.0 3.0 0.00 0.35 0.00 64 1010.9
20260507095503 33 259 2.0 3.0 0.00 0.36 0.00 63 1010.8
20260507095003 33 259 2.0 4.0 0.00 0.38 0.00 63 1010.7
20260507094714 33 259 2.0 4.0 0.00 0.39 0.00 63 1010.8
20260507094003 34 258 3.0 4.0 0.00 0.40 0.00 63 1010.8
20260507093712 33 258 3.0 4.0 0.00 0.41 0.00 63 1010.7
20260507093003 33 258 2.0 4.0 0.00 0.42 0.00 63 1010.7
20260507092503 33 259 1.0 3.0 0.00 0.43 0.00 63 1010.7
20260507092003 33 258 2.0 4.0 0.00 0.45 0.00 63 1010.8
20260507091503 34 258 2.0 4.0 0.00 0.47 0.00 63 1010.9
20260507091003 34 258 2.0 4.0 0.00 0.47 0.00 63 1010.9
20260507090714 34 260 3.0 6.0 0.00 0.48 0.00 63 1010.9
20260507090213 34 265 3.0 6.0 0.00 0.48 0.00 63 1010.8
20260507085503 34 271 3.0 4.0 0.00 0.49 0.00 63 1010.9
20260507085003 34 273 3.0 4.0 0.00 0.50 0.00 62 1010.8
20260507084503 34 270 3.0 4.0 0.00 0.51 0.00 62 1010.8
20260507084003 34 265 3.0 4.0 0.00 0.52 0.00 62 1010.8
20260507083503 34 264 2.0 4.0 0.00 0.52 0.00 62 1010.7
20260507083003 34 267 0.0 2.0 0.00 0.53 0.00 62 1010.7
20260507082714 35 267 1.0 4.0 0.00 0.53 0.00 62 1010.8
20260507082003 35 266 3.0 4.0 0.00 0.54 0.00 62 1010.8
20260507081503 35 263 4.0 6.0 0.00 0.55 0.00 62 1011.0
20260507081003 35 262 4.0 6.0 0.00 0.55 0.00 62 1011.0
20260507080503 36 264 4.0 6.0 0.00 0.56 0.00 62 1011.0
20260507080003 36 265 4.0 6.0 0.00 0.57 0.00 62 1011.0
20260507075503 36 266 3.0 6.0 0.00 0.58 0.00 61 1011.0
20260507075003 36 265 3.0 6.0 0.00 0.59 0.00 61 1011.0
20260507074714 36 262 3.0 6.0 0.00 0.59 0.00 61 1011.1
20260507074003 36 259 3.0 6.0 0.00 0.62 0.00 61 1011.0
20260507073503 36 260 3.0 6.0 0.00 0.62 0.00 61 1010.9
20260507073003 37 264 2.0 6.0 0.00 0.64 0.00 61 1010.8
20260507072503 37 265 1.0 4.0 0.00 0.67 0.00 60 1010.8
20260507072003 37 266 1.0 3.0 0.00 0.68 0.00 60 1010.9
20260507071503 38 266 1.0 3.0 0.00 0.72 0.00 60 1011.0
20260507071003 38 267 1.0 3.0 0.00 0.74 0.00 60 1011.0
20260507070503 38 268 1.0 3.0 0.00 0.75 0.00 59 1011.0
20260507070006 38 269 1.0 3.0 0.00 0.76 0.00 59 1011.0
20260507065503 38 269 0.0 2.0 0.00 0.76 0.00 59 1010.9
20260507065214 39 269 0.0 2.0 0.00 0.76 0.00 59 1010.8
20260507064503 39 272 0.0 3.0 0.00 0.76 0.00 58 1010.8
20260507064003 39 272 0.0 3.0 0.00 0.77 0.00 58 1010.9
20260507063503 39 267 0.0 2.0 0.00 0.78 0.00 58 1010.9
20260507063003 40 266 0.0 3.0 0.00 0.78 0.00 58 1011.0
20260507062503 40 264 0.0 3.0 0.00 0.78 0.00 58 1011.0
20260507062003 40 262 0.0 2.0 0.00 0.78 0.00 57 1010.9
20260507061503 40 262 0.0 2.0 0.00 0.79 0.00 58 1011.2
20260507061003 40 262 1.0 4.0 0.00 0.79 0.00 57 1011.2
20260507060713 40 262 1.0 4.0 0.00 0.79 0.00 57 1011.2
20260507060003 40 257 1.0 6.0 0.00 0.80 0.00 57 1011.3
20260507055503 40 261 1.0 6.0 0.00 0.80 0.00 57 1011.4
20260507055003 40 278 2.0 4.0 0.00 0.80 0.00 56 1011.4
20260507054503 40 280 2.0 8.0 0.00 0.81 0.00 56 1011.5
20260507054003 40 270 2.0 8.0 0.00 0.81 0.00 56 1011.5
20260507053503 40 264 2.0 7.0 0.00 0.81 0.00 56 1011.4
20260507053004 40 265 2.0 7.0 0.00 0.82 0.00 56 1011.5
20260507052503 40 266 3.0 7.0 0.00 0.82 0.00 55 1011.5
20260507052003 40 268 2.0 8.0 0.00 0.84 0.00 55 1011.4
20260507051713 40 268 3.0 8.0 0.00 0.84 0.00 55 1011.6
20260507051003 40 264 2.0 9.0 0.00 0.85 0.00 55 1011.5
20260507050713 40 269 2.0 9.0 0.00 0.85 0.00 55 1011.5
20260507050003 40 273 2.0 7.0 0.00 0.86 0.00 55 1011.7
20260507045713 40 267 3.0 9.0 0.00 0.87 0.00 54 1011.6
20260507045214 40 265 2.0 9.0 0.00 0.88 0.00 55 1011.6
20260507044503 41 265 1.0 5.0 0.00 0.88 0.00 55 1011.7
20260507044003 41 266 1.0 5.0 0.00 0.88 0.00 55 1011.6
20260507043712 41 262 1.0 5.0 0.00 0.89 0.00 55 1011.5
20260507043003 41 278 1.0 4.0 0.00 0.89 0.00 55 1011.5
20260507042503 41 331 0.0 3.0 0.00 0.89 0.00 55 1011.5
20260507042003 41 276 0.0 3.0 0.00 0.89 0.00 55 1011.4
20260507041503 41 280 1.0 7.0 0.00 0.89 0.00 55 1011.4
20260507041003 41 299 2.0 7.0 0.00 0.89 0.00 55 1011.4
20260507040503 41 294 2.0 7.0 0.00 0.89 0.00 55 1011.4
20260507040003 41 285 2.0 7.0 0.00 0.89 0.00 55 1011.4
20260507035503 41 288 2.0 7.0 0.00 0.89 0.89 55 1011.5
20260507035213 41 277 2.0 7.0 0.00 0.89 0.89 55 1011.4
20260507034503 41 267 1.0 7.0 0.00 0.89 0.89 56 1011.3
20260507034213 41 273 1.0 7.0 0.00 0.89 0.89 56 1011.3
20260507033503 41 269 2.0 7.0 0.00 0.89 0.89 56 1011.3
20260507033003 41 278 1.0 7.0 0.00 0.89 0.89 56 1011.3
20260507032504 41 276 1.0 8.0 0.00 0.89 0.89 57 1011.2
20260507032003 41 263 2.0 8.0 0.00 0.89 0.89 57 1011.2
20260507031714 42 275 1.0 8.0 0.00 0.89 0.89 58 1011.2
20260507031003 42 282 2.0 8.0 0.00 0.89 0.89 58 1011.2
20260507030714 42 277 3.0 8.0 0.00 0.89 0.89 58 1011.3
20260507030003 42 271 3.0 9.0 0.00 0.89 0.89 58 1011.3
20260507025503 42 268 2.0 9.0 0.00 0.89 0.89 58 1011.1
20260507025003 42 264 1.0 8.0 0.00 0.89 0.89 59 1011.0
20260507024714 42 281 2.0 8.0 0.00 0.89 0.89 59 1011.1
20260507024003 42 304 3.0 11.0 0.00 0.89 0.89 59 1011.1
20260507023503 42 300 2.0 11.0 0.00 0.90 0.89 59 1011.2
20260507023003 43 319 1.0 5.0 0.00 0.91 0.89 58 1011.1
20260507022714 43 339 1.0 5.0 0.00 0.91 0.89 58 1011.0
20260507022003 43 300 2.0 8.0 0.00 0.92 0.89 58 1011.0
20260507021503 43 289 2.0 7.0 0.00 0.93 0.89 58 1011.0
20260507021213 43 287 2.0 8.0 0.00 0.93 0.89 58 1011.0
20260507020503 43 283 2.0 8.0 0.00 0.96 0.89 58 1011.0
20260507020003 43 278 3.0 10.0 0.00 0.98 0.89 58 1010.9
20260507015503 44 284 3.0 10.0 0.00 0.99 0.89 58 1011.1
20260507015003 44 283 3.0 9.0 0.00 1.04 0.89 58 1011.1
20260507014503 44 290 3.0 9.0 0.00 1.05 0.89 58 1011.0
20260507014003 44 306 2.0 7.0 0.00 1.06 0.89 58 1010.8
20260507013503 44 324 2.0 8.0 0.00 1.06 0.89 58 1010.9
20260507013003 44 336 3.0 8.0 0.00 1.07 0.89 58 1010.8
20260507012503 44 334 3.0 8.0 0.00 1.07 0.89 58 1011.0
20260507012003 45 307 2.0 5.0 0.00 1.08 0.89 58 1010.8
20260507011503 45 279 3.0 16.0 0.00 1.09 0.89 58 1011.0
20260507011003 45 284 3.0 16.0 0.00 1.14 0.89 58 1010.8
20260507010503 45 324 3.0 11.0 0.00 1.19 0.89 58 1010.7
20260507010214 45 317 3.0 11.0 0.00 1.21 0.89 58 1010.7
20260507005503 45 284 4.0 11.0 0.00 1.22 0.89 59 1010.7
20260507005003 45 315 4.0 14.0 0.00 1.22 0.89 59 1010.6
20260507004503 45 342 4.0 14.0 0.00 1.22 0.89 59 1010.4
20260507004003 46 333 3.0 13.0 0.00 1.22 0.89 59 1010.6
20260507003713 45 337 3.0 13.0 0.00 1.22 0.89 59 1010.4
20260507003003 45 353 1.0 5.0 0.00 1.23 0.89 60 1010.3
20260507002503 45 352 1.0 5.0 0.00 1.25 0.89 61 1010.2
20260507002003 46 360 1.0 8.0 0.00 1.25 0.89 61 1010.1
20260507001503 46 1 1.0 8.0 0.00 1.26 0.89 62 1009.9
20260507001214 46 2 0.0 5.0 0.00 1.26 0.89 62 1010.0
20260507000503 46 359 0.0 4.0 0.00 1.26 0.89 62 1010.0
20260507000214 46 3 0.0 4.0 0.00 1.26 0.89 62 1009.9
20260506235713 46 53 1.0 3.0 0.00 1.26 0.89 62 1009.7
20260506235003 46 75 0.0 2.0 0.00 1.26 0.89 62 1009.6
20260506234503 46 114 1.0 2.0 0.00 1.26 0.89 62 1009.7
20260506234003 46 111 0.0 2.0 0.00 1.26 0.89 62 1009.6
20260506233503 46 0 0.0 0.0 0.00 1.26 0.89 62 1009.5
20260506233213 46 0 0.0 0.0 0.00 1.26 0.89 62 1009.4
20260506232503 46 0 0.0 0.0 0.00 1.26 0.89 62 1009.3
20260506232003 46 0 0.0 0.0 0.00 1.27 0.89 62 1009.3
20260506231503 46 0 0.0 0.0 0.00 1.27 0.89 61 1009.3
20260506231003 46 40 1.0 2.0 0.00 1.28 0.89 61 1009.3
20260506230712 46 28 1.0 3.0 0.00 1.28 0.89 61 1009.4
20260506230003 46 19 0.0 3.0 0.00 1.28 0.89 61 1009.2
20260506225503 46 0 0.0 0.0 0.00 1.28 0.89 61 1009.3
20260506225003 46 0 0.0 0.0 0.00 1.28 0.89 62 1009.2
20260506224503 46 0 0.0 0.0 0.00 1.28 0.89 62 1009.2
20260506224003 46 0 0.0 0.0 0.00 1.28 0.89 62 1009.1
20260506223503 46 0 0.0 0.0 0.00 1.28 0.89 61 1009.0
20260506223003 46 0 0.0 0.0 0.00 1.28 0.89 62 1009.0
20260506222714 46 0 0.0 0.0 0.00 1.28 0.89 62 1009.0
20260506222003 46 96 1.0 2.0 0.00 1.28 0.89 61 1008.9
20260506221714 46 96 1.0 2.0 0.00 1.28 0.89 61 1008.9
20260506221213 46 96 0.0 2.0 0.00 1.28 0.89 62 1008.8
20260506220503 46 97 0.0 3.0 0.00 1.28 0.89 62 1008.8
20260506220213 46 97 1.0 3.0 0.00 1.28 0.89 62 1008.8
20260506215503 46 96 1.0 3.0 0.00 1.28 0.89 61 1008.9
20260506215004 46 86 1.0 4.0 0.00 1.28 0.89 61 1009.1
20260506214714 46 85 1.0 4.0 0.00 1.28 0.89 62 1009.0
20260506214003 46 41 0.0 3.0 0.00 1.28 0.89 63 1008.9
20260506213714 46 10 1.0 4.0 0.00 1.28 0.89 63 1008.9
20260506213003 46 316 1.0 5.0 0.00 1.28 0.89 64 1009.0
20260506212503 46 356 1.0 5.0 0.00 1.28 0.89 63 1009.0
20260506212003 46 79 1.0 3.0 0.00 1.28 0.89 64 1008.9
20260506211714 46 79 1.0 3.0 0.00 1.28 0.89 64 1008.9
20260506211003 46 77 1.0 3.0 0.00 1.28 0.89 64 1009.0
20260506210503 46 44 1.0 3.0 0.00 1.28 0.89 64 1009.1
20260506210003 45 14 1.0 4.0 0.00 1.28 0.89 64 1008.9
20260506205503 45 13 2.0 4.0 0.00 1.28 0.89 64 1008.8
20260506205003 45 24 2.0 5.0 0.00 1.28 0.89 64 1008.7
20260506204503 45 24 3.0 5.0 0.00 1.28 0.89 64 1008.8
20260506204003 45 2 3.0 6.0 0.00 1.28 0.89 65 1008.8
20260506203503 45 353 3.0 6.0 0.00 1.28 0.89 64 1008.8
20260506203003 45 358 3.0 6.0 0.00 1.28 0.89 64 1008.8
20260506202503 45 9 2.0 6.0 0.00 1.28 0.89 64 1008.9
20260506202003 45 25 1.0 6.0 0.00 1.28 0.89 64 1008.9
20260506201503 45 27 2.0 4.0 0.00 1.28 0.89 64 1008.9
20260506201212 45 30 2.0 5.0 0.00 1.28 0.89 64 1008.9
20260506200503 45 35 2.0 5.0 0.00 1.28 0.89 64 1008.8
20260506200003 45 70 2.0 4.0 0.00 1.28 0.89 64 1008.7